Terminal Aerodrome Forecast
Issued by NWS

Home | Current Version | Previous Version | Text Only | Print | Product List | Glossary On
Versions: 1 2 3 4 5 6 7 8 9 10 11 12 13 14 15 16
000
FTUS45 KRIW 220500
TAFJAC
TAF
KJAC 220539Z 2206/2306 29017G25KT P6SM VCSH SCT025 BKN040
     FM220800 26013KT 5SM -SHSN BKN025
     FM222100 30014G24KT P6SM VCSH SCT030 BKN050
     FM230200 36009KT P6SM SCT050
      AMD LTD TO CLD VIS AND WIND=

USA.gov is the U.S. government's official web portal to all federal, state and local government web resources and services.